Flag for Guyana Weather past 2 weeks in Linden, Guyana

Now
72 °F

Partly sunny.


Feels Like: 65 °F
Forecast: 72 / 85 °F
Wind: No wind

Location: Georgetown/Cheddi Jagan International Airport

Current Time: Apr 1, 2015 at 7:30:55 AM

Latest Report: Apr 1, 2015 at 7:00 AM


Visibility: N/A

Pressure: 29.98 "Hg

Humidity: 100%

Dew point: 72 °F

Location of LindenLocation

Historic Weather in Linden — Graph

°F

Linden temperature yesterday

Maximum temperature yesterday: 86 °F (at 10:00 AM)
Minimum temperature yesterday: 73 °F (at 1:00 AM)
Average temperature yesterday: 78 °F

Past Weeks' High & Low Weather Summary

 TemperatureHumidityPressure
High90 °F (Mar 21, 1:00 PM)100% (Mar 17, 8:00 PM)30.04 "Hg (Mar 17, 8:00 PM)
Low66 °F (Mar 23, 6:00 AM)46% (Mar 23, 2:00 PM)29.80 "Hg (Mar 18, 3:00 PM)
Average78 °F83%29.93 "Hg
* Reported Mar 17 6:00 AM — Apr 1 6:00 AM, Linden, Weather by CustomWeather, © 2015

Note: Actual official high and low records may vary slightly from our data, if they occured in-between our weather recording intervals... More about our weather records

Advertising

Linden weather history for previous 24 hours

 ConditionsComfort  
Time TempWeatherWind HumidityBarometerVisibility
6:00 AM
Wed, Apr 1
70 °FPartly sunny.No wind100%29.95 "Hg6 mi
5:00 AM72 °FPassing clouds.No wind94%29.95 "Hg6 mi
4:00 AM72 °FPassing clouds.No wind94%29.92 "Hg6 mi
2:00 AM73 °FPassing clouds.No wind89%29.92 "HgN/A
1:00 AM72 °FPassing clouds.2 mph94%29.95 "HgN/A
12:00 AM73 °FPassing clouds.No wind89%29.98 "HgN/A
11:00 PM
Tue, Mar 31
73 °FPassing clouds.No wind89%29.98 "HgN/A
10:00 PM75 °FPassing clouds.2 mph89%29.98 "HgN/A
9:00 PM75 °FClear.No wind89%29.95 "Hg10 mi
8:00 PM77 °FPassing clouds.7 mph83%29.92 "HgN/A
7:00 PM77 °FPassing clouds.9 mph83%29.92 "HgN/A
6:00 PM79 °FScattered clouds.12 mph74%29.89 "HgN/A
5:00 PM82 °FScattered clouds.12 mph66%29.89 "HgN/A
4:00 PM82 °FBroken clouds.12 mph70%29.89 "HgN/A
2:00 PM84 °FClear.13 mph62%29.92 "HgN/A
1:00 PM82 °FBroken clouds.7 mph74%29.95 "HgN/A
12:00 PM86 °FBroken clouds.14 mph62%29.98 "HgN/A
11:00 AM84 °FScattered clouds.9 mph66%30.01 "HgN/A
10:00 AM86 °FScattered clouds.12 mph62%30.01 "HgN/A
9:00 AM82 °FBroken clouds.9 mph70%30.01 "HgN/A
8:00 AM79 °FBroken clouds.5 mph84%30.01 "HgN/A
7:00 AM75 °FScattered clouds.No wind89%29.95 "HgN/A
Weather by CustomWeather, © 2015

See weather overviewHow to use our weather pages